| time (UTC) | temp F | wind direction | speed MPH | gust MPH | rain 1hr in | rain 24hr in | rain mn in | humidity % | barometer mb |
| 20260505011324 | 66 | 221 | 0.0 | 1.0 | 0.00 | 0.00 | 0.00 | 61 | 1010.4 |
| 20260505010820 | 66 | 256 | 0.0 | 1.0 | 0.00 | 0.00 | 0.00 | 60 | 1010.3 |
| 20260505010316 | 67 | 212 | 0.0 | 1.0 | 0.00 | 0.00 | 0.00 | 60 | 1010.2 |
| 20260505005812 | 67 | 195 | 2.0 | 2.0 | 0.00 | 0.00 | 0.00 | 59 | 1009.9 |
| 20260505005309 | 67 | 211 | 1.0 | 3.0 | 0.00 | 0.00 | 0.00 | 59 | 1010.5 |
| 20260505004807 | 68 | 239 | 0.0 | 2.0 | 0.00 | 0.00 | 0.00 | 58 | 1010.1 |
| 20260505004302 | 68 | 204 | 5.0 | 6.0 | 0.00 | 0.00 | 0.00 | 57 | 1010.1 |
| 20260505003800 | 68 | 197 | 3.0 | 3.0 | 0.00 | 0.00 | 0.00 | 56 | 1010.0 |
| 20260505003258 | 69 | 197 | 4.0 | 7.0 | 0.00 | 0.00 | 0.00 | 56 | 1010.1 |
| 20260505002754 | 69 | 220 | 4.0 | 9.0 | 0.00 | 0.00 | 0.00 | 55 | 1010.1 |
| 20260505002251 | 69 | 199 | 2.0 | 7.0 | 0.00 | 0.00 | 0.00 | 55 | 1010.1 |
| 20260505001749 | 69 | 159 | 6.0 | 8.0 | 0.00 | 0.00 | 0.00 | 54 | 1010.0 |
| 20260505001246 | 69 | 187 | 1.0 | 3.0 | 0.00 | 0.00 | 0.00 | 53 | 1009.9 |
| 20260505000743 | 69 | 195 | 3.0 | 7.0 | 0.00 | 0.00 | 0.00 | 55 | 1009.7 |
| 20260505000241 | 68 | 208 | 3.0 | 6.0 | 0.00 | 0.00 | 0.00 | 56 | 1009.8 |
| 20260504235737 | 68 | 268 | 0.0 | 1.0 | 0.00 | 0.00 | 0.00 | 58 | 1009.9 |
| 20260504235233 | 69 | 190 | 0.0 | 2.0 | 0.00 | 0.00 | 0.00 | 55 | 1009.6 |
| 20260504234731 | 70 | 204 | 1.0 | 2.0 | 0.00 | 0.00 | 0.00 | 53 | 1009.7 |
| 20260504234228 | 71 | 262 | 2.0 | 6.0 | 0.00 | 0.00 | 0.00 | 50 | 1009.9 |
| 20260504233724 | 72 | 187 | 2.0 | 3.0 | 0.00 | 0.00 | 0.00 | 47 | 1009.9 |
| 20260504233220 | 72 | 217 | 1.0 | 2.0 | 0.00 | 0.00 | 0.00 | 46 | 1010.0 |
| 20260504232717 | 72 | 203 | 1.0 | 2.0 | 0.00 | 0.00 | 0.00 | 46 | 1009.7 |
| 20260504232214 | 72 | 218 | 0.0 | 1.0 | 0.00 | 0.00 | 0.00 | 46 | 1009.9 |
| 20260504231711 | 73 | 190 | 2.0 | 3.0 | 0.00 | 0.00 | 0.00 | 45 | 1009.6 |
| 20260504231207 | 73 | 195 | 2.0 | 3.0 | 0.00 | 0.00 | 0.00 | 44 | 1009.8 |
| 20260504230703 | 73 | 296 | 1.0 | 5.0 | 0.00 | 0.00 | 0.00 | 43 | 1009.9 |
| 20260504230202 | 74 | 192 | 1.0 | 8.0 | 0.00 | 0.00 | 0.00 | 42 | 1009.7 |
| 20260504225700 | 74 | 219 | 1.0 | 7.0 | 0.00 | 0.00 | 0.00 | 42 | 1009.5 |
| 20260504225156 | 74 | 178 | 4.0 | 9.0 | 0.00 | 0.00 | 0.00 | 42 | 1009.4 |
| 20260504224653 | 74 | 204 | 5.0 | 14.0 | 0.00 | 0.00 | 0.00 | 41 | 1009.4 |
| 20260504224150 | 74 | 206 | 7.0 | 13.0 | 0.00 | 0.00 | 0.00 | 41 | 1009.5 |
| 20260504223647 | 74 | 239 | 1.0 | 6.0 | 0.00 | 0.00 | 0.00 | 42 | 1009.5 |
| 20260504223142 | 74 | 211 | 5.0 | 8.0 | 0.00 | 0.00 | 0.00 | 41 | 1009.6 |
| 20260504222640 | 74 | 231 | 5.0 | 8.0 | 0.00 | 0.00 | 0.00 | 41 | 1009.6 |
| 20260504222137 | 74 | 189 | 4.0 | 7.0 | 0.00 | 0.00 | 0.00 | 41 | 1009.5 |
| 20260504221634 | 74 | 203 | 8.0 | 9.0 | 0.00 | 0.00 | 0.00 | 41 | 1009.6 |
| 20260504221131 | 75 | 172 | 6.0 | 9.0 | 0.00 | 0.00 | 0.00 | 41 | 1009.5 |
| 20260504220627 | 74 | 206 | 2.0 | 6.0 | 0.00 | 0.00 | 0.00 | 41 | 1009.2 |
| 20260504220125 | 74 | 225 | 3.0 | 10.0 | 0.00 | 0.00 | 0.00 | 41 | 1009.5 |
| 20260504215621 | 75 | 205 | 2.0 | 5.0 | 0.00 | 0.00 | 0.00 | 41 | 1009.5 |
| 20260504215119 | 75 | 229 | 8.0 | 14.0 | 0.00 | 0.00 | 0.00 | 40 | 1009.4 |
| 20260504214614 | 75 | 224 | 8.0 | 9.0 | 0.00 | 0.00 | 0.00 | 39 | 1009.5 |
| 20260504214111 | 75 | 198 | 7.0 | 13.0 | 0.00 | 0.00 | 0.00 | 40 | 1009.2 |
| 20260504213607 | 75 | 195 | 9.0 | 13.0 | 0.00 | 0.00 | 0.00 | 40 | 1009.4 |
| 20260504213104 | 75 | 208 | 5.0 | 10.0 | 0.00 | 0.00 | 0.00 | 39 | 1009.2 |
| 20260504212600 | 75 | 163 | 10.0 | 11.0 | 0.00 | 0.00 | 0.00 | 39 | 1009.5 |
| 20260504212058 | 75 | 237 | 2.0 | 9.0 | 0.00 | 0.00 | 0.00 | 38 | 1009.5 |
| 20260504211554 | 75 | 142 | 2.0 | 7.0 | 0.00 | 0.00 | 0.00 | 39 | 1009.3 |
| 20260504211051 | 76 | 190 | 7.0 | 14.0 | 0.00 | 0.00 | 0.00 | 39 | 1009.2 |
| 20260504210549 | 76 | 127 | 4.0 | 13.0 | 0.00 | 0.00 | 0.00 | 39 | 1009.3 |
| 20260504210045 | 76 | 190 | 10.0 | 11.0 | 0.00 | 0.00 | 0.00 | 38 | 1009.1 |
| 20260504205543 | 76 | 176 | 4.0 | 6.0 | 0.00 | 0.00 | 0.00 | 38 | 1009.4 |
| 20260504205041 | 75 | 228 | 4.0 | 14.0 | 0.00 | 0.00 | 0.00 | 38 | 1009.1 |
| 20260504204538 | 76 | 208 | 7.0 | 10.0 | 0.00 | 0.00 | 0.00 | 38 | 1009.4 |
| 20260504204038 | 76 | 196 | 4.0 | 9.0 | 0.00 | 0.00 | 0.00 | 38 | 1009.4 |
| 20260504203535 | 75 | 208 | 4.0 | 9.0 | 0.00 | 0.00 | 0.00 | 37 | 1009.4 |
| 20260504203032 | 76 | 191 | 6.0 | 14.0 | 0.00 | 0.00 | 0.00 | 38 | 1009.4 |
| 20260504202527 | 76 | 200 | 4.0 | 9.0 | 0.00 | 0.00 | 0.00 | 38 | 1009.6 |
| 20260504202025 | 76 | 184 | 11.0 | 15.0 | 0.00 | 0.00 | 0.00 | 36 | 1009.4 |
| 20260504201522 | 76 | 179 | 3.0 | 6.0 | 0.00 | 0.00 | 0.00 | 38 | 1009.6 |
| 20260504201020 | 76 | 213 | 5.0 | 10.0 | 0.00 | 0.00 | 0.00 | 38 | 1009.5 |
| 20260504200516 | 76 | 264 | 4.0 | 7.0 | 0.00 | 0.00 | 0.00 | 37 | 1009.4 |
| 20260504200013 | 76 | 184 | 4.0 | 14.0 | 0.00 | 0.00 | 0.00 | 37 | 1009.8 |
| 20260504195509 | 75 | 214 | 4.0 | 7.0 | 0.00 | 0.00 | 0.00 | 38 | 1009.8 |
| 20260504195005 | 75 | 200 | 7.0 | 9.0 | 0.00 | 0.00 | 0.00 | 37 | 1009.9 |
| 20260504194501 | 75 | 196 | 3.0 | 8.0 | 0.00 | 0.00 | 0.00 | 39 | 1010.0 |
| 20260504193957 | 74 | 199 | 9.0 | 11.0 | 0.00 | 0.00 | 0.00 | 37 | 1010.1 |
| 20260504193455 | 74 | 178 | 5.0 | 7.0 | 0.00 | 0.00 | 0.00 | 38 | 1009.9 |
| 20260504192953 | 76 | 150 | 9.0 | 11.0 | 0.00 | 0.00 | 0.00 | 37 | 1010.0 |
| 20260504192450 | 76 | 165 | 12.0 | 15.0 | 0.00 | 0.00 | 0.00 | 36 | 1009.9 |
| 20260504191949 | 76 | 187 | 3.0 | 6.0 | 0.00 | 0.00 | 0.00 | 35 | 1010.0 |
| 20260504191447 | 77 | 192 | 5.0 | 10.0 | 0.00 | 0.00 | 0.00 | 36 | 1010.4 |
| 20260504190941 | 77 | 223 | 3.0 | 5.0 | 0.00 | 0.00 | 0.00 | 35 | 1010.1 |
| 20260504190438 | 76 | 172 | 5.0 | 10.0 | 0.00 | 0.00 | 0.00 | 35 | 1010.4 |
| 20260504185934 | 77 | 193 | 4.0 | 11.0 | 0.00 | 0.00 | 0.00 | 35 | 1010.2 |
| 20260504185432 | 76 | 156 | 5.0 | 6.0 | 0.00 | 0.00 | 0.00 | 35 | 1010.4 |
| 20260504184928 | 75 | 187 | 6.0 | 9.0 | 0.00 | 0.00 | 0.00 | 35 | 1010.4 |
| 20260504184424 | 76 | 228 | 5.0 | 9.0 | 0.00 | 0.00 | 0.00 | 35 | 1010.5 |
| 20260504183920 | 76 | 201 | 10.0 | 14.0 | 0.00 | 0.00 | 0.00 | 35 | 1010.7 |
| 20260504183417 | 75 | 194 | 5.0 | 16.0 | 0.00 | 0.00 | 0.00 | 35 | 1010.5 |
| 20260504182915 | 76 | 230 | 4.0 | 7.0 | 0.00 | 0.00 | 0.00 | 34 | 1011.0 |
| 20260504182412 | 77 | 207 | 5.0 | 8.0 | 0.00 | 0.00 | 0.00 | 34 | 1010.8 |
| 20260504181908 | 76 | 224 | 2.0 | 8.0 | 0.00 | 0.00 | 0.00 | 36 | 1010.9 |
| 20260504181406 | 76 | 158 | 4.0 | 7.0 | 0.00 | 0.00 | 0.00 | 36 | 1011.0 |
| 20260504180905 | 75 | 159 | 7.0 | 15.0 | 0.00 | 0.00 | 0.00 | 34 | 1011.1 |
| 20260504180403 | 75 | 194 | 5.0 | 10.0 | 0.00 | 0.00 | 0.00 | 34 | 1011.2 |
| 20260504175901 | 75 | 180 | 7.0 | 11.0 | 0.00 | 0.00 | 0.00 | 35 | 1011.3 |
| 20260504175357 | 75 | 186 | 0.0 | 5.0 | 0.00 | 0.00 | 0.00 | 36 | 1011.5 |
| 20260504174855 | 75 | 198 | 5.0 | 8.0 | 0.00 | 0.00 | 0.00 | 37 | 1011.5 |
| 20260504174352 | 74 | 180 | 10.0 | 11.0 | 0.00 | 0.00 | 0.00 | 35 | 1011.6 |
| 20260504173849 | 74 | 203 | 7.0 | 11.0 | 0.00 | 0.00 | 0.00 | 37 | 1011.5 |
| 20260504173346 | 75 | 204 | 5.0 | 15.0 | 0.00 | 0.00 | 0.00 | 36 | 1011.6 |
| 20260504172843 | 75 | 195 | 2.0 | 3.0 | 0.00 | 0.00 | 0.00 | 36 | 1011.5 |
| 20260504172340 | 75 | 246 | 3.0 | 8.0 | 0.00 | 0.00 | 0.00 | 36 | 1011.8 |
| 20260504171835 | 74 | 224 | 2.0 | 8.0 | 0.00 | 0.00 | 0.00 | 38 | 1011.8 |
| 20260504171333 | 73 | 181 | 3.0 | 5.0 | 0.00 | 0.00 | 0.00 | 38 | 1012.0 |
| 20260504170830 | 73 | 211 | 9.0 | 11.0 | 0.00 | 0.00 | 0.00 | 38 | 1012.1 |
| 20260504170327 | 73 | 193 | 8.0 | 11.0 | 0.00 | 0.00 | 0.00 | 38 | 1012.2 |
| 20260504160245 | 71 | 200 | 8.0 | 10.0 | 0.00 | 0.00 | 0.00 | 37 | 1012.9 |
| 20260504150710 | 68 | 185 | 7.0 | 9.0 | 0.00 | 0.00 | 0.00 | 39 | 1013.5 |
| 20260504150207 | 69 | 174 | 6.0 | 7.0 | 0.00 | 0.00 | 0.00 | 41 | 1013.5 |
| 20260504141136 | 63 | 179 | 1.0 | 7.0 | 0.00 | 0.00 | 0.00 | 50 | 1013.7 |
| 20260504140633 | 63 | 206 | 3.0 | 8.0 | 0.00 | 0.00 | 0.00 | 49 | 1013.9 |
| 20260504140129 | 63 | 169 | 3.0 | 10.0 | 0.00 | 0.00 | 0.00 | 49 | 1013.6 |
| 20260504130557 | 57 | 185 | 3.0 | 6.0 | 0.00 | 0.00 | 0.00 | 57 | 1014.5 |
| 20260504110445 | 45 | 222 | 0.0 | 0.0 | 0.00 | 0.00 | 0.00 | 89 | 1014.7 |
| 20260504100407 | 45 | 249 | 0.0 | 0.0 | 0.00 | 0.00 | 0.00 | 91 | 1014.7 |
| 20260504081800 | 46 | 250 | 0.0 | 0.0 | 0.00 | 0.00 | 0.00 | 86 | 1015.2 |
| 20260504081256 | 46 | 252 | 0.0 | 0.0 | 0.00 | 0.00 | 0.00 | 85 | 1015.0 |
| 20260504080753 | 46 | 252 | 0.0 | 0.0 | 0.00 | 0.00 | 0.00 | 83 | 1015.0 |
| 20260504080249 | 46 | 252 | 0.0 | 0.0 | 0.00 | 0.00 | 0.00 | 83 | 1015.1 |
| 20260504070217 | 46 | 273 | 1.0 | 1.0 | 0.00 | 0.00 | 0.00 | 81 | 1015.0 |
| 20260504060138 | 46 | 228 | 0.0 | 0.0 | 0.00 | 0.00 | 0.00 | 85 | 1015.4 |
| 20260504050606 | 45 | 221 | 0.0 | 0.0 | 0.00 | 0.00 | 0.00 | 86 | 1015.3 |
| 20260504050103 | 45 | 221 | 0.0 | 0.0 | 0.00 | 0.00 | 0.00 | 86 | 1015.3 |
| 20260504045600 | 45 | 221 | 0.0 | 0.0 | 0.00 | 0.00 | 0.00 | 86 | 1015.3 |
| 20260504045055 | 45 | 221 | 0.0 | 0.0 | 0.00 | 0.00 | 0.00 | 87 | 1015.6 |
| 20260504044553 | 45 | 221 | 0.0 | 0.0 | 0.00 | 0.00 | 0.00 | 87 | 1015.3 |
| 20260504044049 | 45 | 221 | 0.0 | 0.0 | 0.00 | 0.00 | 0.00 | 87 | 1015.5 |
| 20260504043547 | 45 | 221 | 0.0 | 0.0 | 0.00 | 0.00 | 0.00 | 86 | 1015.3 |
| 20260504043044 | 45 | 221 | 0.0 | 0.0 | 0.00 | 0.00 | 0.00 | 85 | 1015.2 |
| 20260504042541 | 45 | 221 | 0.0 | 0.0 | 0.00 | 0.00 | 0.00 | 85 | 1015.2 |
| 20260504042038 | 45 | 221 | 0.0 | 0.0 | 0.00 | 0.00 | 0.00 | 86 | 1015.0 |
| 20260504041533 | 45 | 221 | 0.0 | 0.0 | 0.00 | 0.00 | 0.00 | 86 | 1015.0 |
| 20260504041030 | 45 | 221 | 0.0 | 0.0 | 0.00 | 0.00 | 0.00 | 85 | 1015.3 |
| 20260504040527 | 45 | 221 | 0.0 | 0.0 | 0.00 | 0.00 | 0.00 | 85 | 1015.1 |
| 20260504040024 | 44 | 221 | 0.0 | 0.0 | 0.00 | 0.00 | 0.00 | 85 | 1014.9 |
| 20260504035521 | 44 | 221 | 0.0 | 0.0 | 0.00 | 0.00 | 0.00 | 85 | 1015.0 |
| 20260504035017 | 44 | 221 | 0.0 | 0.0 | 0.00 | 0.00 | 0.00 | 85 | 1015.1 |
| 20260504034515 | 44 | 221 | 0.0 | 0.0 | 0.00 | 0.00 | 0.00 | 85 | 1015.1 |
| 20260504034012 | 44 | 221 | 0.0 | 0.0 | 0.00 | 0.00 | 0.00 | 86 | 1015.2 |
| 20260504033510 | 44 | 221 | 0.0 | 0.0 | 0.00 | 0.00 | 0.00 | 86 | 1015.1 |
| 20260504033007 | 44 | 221 | 0.0 | 0.0 | 0.00 | 0.00 | 0.00 | 87 | 1015.1 |
| 20260504032503 | 44 | 221 | 0.0 | 0.0 | 0.00 | 0.00 | 0.00 | 87 | 1015.0 |
| 20260504032000 | 43 | 221 | 0.0 | 0.0 | 0.00 | 0.00 | 0.00 | 87 | 1015.2 |
| 20260504031457 | 43 | 221 | 0.0 | 0.0 | 0.00 | 0.00 | 0.00 | 87 | 1014.9 |
| 20260504030954 | 43 | 221 | 0.0 | 0.0 | 0.00 | 0.00 | 0.00 | 87 | 1015.1 |
| 20260504030451 | 43 | 221 | 0.0 | 0.0 | 0.00 | 0.00 | 0.00 | 87 | 1015.2 |
| 20260504025946 | 42 | 221 | 0.0 | 0.0 | 0.00 | 0.00 | 0.00 | 86 | 1015.1 |
| 20260504025444 | 43 | 221 | 0.0 | 0.0 | 0.00 | 0.00 | 0.00 | 86 | 1015.1 |
| 20260504024941 | 43 | 221 | 0.0 | 0.0 | 0.00 | 0.00 | 0.00 | 86 | 1014.9 |
| 20260504024438 | 43 | 221 | 0.0 | 0.0 | 0.00 | 0.00 | 0.00 | 85 | 1015.0 |
| 20260504023935 | 43 | 221 | 0.0 | 0.0 | 0.00 | 0.00 | 0.00 | 84 | 1015.1 |
| 20260504023431 | 43 | 221 | 0.0 | 0.0 | 0.00 | 0.00 | 0.00 | 84 | 1015.1 |
| 20260504022927 | 44 | 221 | 0.0 | 0.0 | 0.00 | 0.00 | 0.00 | 84 | 1015.0 |
| 20260504022423 | 44 | 221 | 0.0 | 0.0 | 0.00 | 0.00 | 0.00 | 84 | 1015.2 |
| 20260504021920 | 44 | 221 | 0.0 | 0.0 | 0.00 | 0.00 | 0.00 | 83 | 1015.1 |
| 20260504021417 | 45 | 221 | 0.0 | 0.0 | 0.00 | 0.00 | 0.00 | 82 | 1015.0 |
| 20260504020915 | 45 | 221 | 0.0 | 0.0 | 0.00 | 0.00 | 0.00 | 81 | 1015.0 |
| 20260504020411 | 45 | 221 | 0.0 | 0.0 | 0.00 | 0.00 | 0.00 | 81 | 1014.8 |
| 20260504015908 | 45 | 221 | 0.0 | 0.0 | 0.00 | 0.00 | 0.00 | 79 | 1014.9 |
| 20260504015404 | 46 | 221 | 0.0 | 0.0 | 0.00 | 0.00 | 0.00 | 78 | 1014.9 |
| 20260504014900 | 46 | 221 | 0.0 | 0.0 | 0.00 | 0.00 | 0.00 | 76 | 1014.6 |
| 20260504014356 | 46 | 221 | 0.0 | 0.0 | 0.00 | 0.00 | 0.00 | 76 | 1014.7 |
| 20260504013853 | 46 | 221 | 0.0 | 0.0 | 0.00 | 0.00 | 0.00 | 74 | 1014.5 |
| 20260504013351 | 47 | 221 | 0.0 | 0.0 | 0.00 | 0.00 | 0.00 | 73 | 1014.6 |
| 20260504012847 | 47 | 221 | 0.0 | 0.0 | 0.00 | 0.00 | 0.00 | 72 | 1014.6 |
| 20260504012345 | 47 | 220 | 0.0 | 0.0 | 0.00 | 0.00 | 0.00 | 72 | 1014.5 |
| 20260504011843 | 48 | 215 | 0.0 | 0.0 | 0.00 | 0.00 | 0.00 | 70 | 1014.5 |